Weather History for Leadville, CO

Change the Weather History Date:

Wednesday, February 13, 2013

  Actual Average Record
Temperature  
Mean Temperature 11 °F -  
Max Temperature 21 °F 31 °F 48 °F (1979)
Min Temperature 1 °F 4 °F -13 °F (1989)
Degree Days  
Heating Degree Days 54 47  
Month to date heating degree days 643 622  
Since 1 July heating degree days 6733 7019  
Cooling Degree Days 0 0  
Month to date cooling degree days 0 0  
Year to date cooling degree days 0 0  
Moisture  
Dew Point 5 °F    
Average Humidity 78    
Maximum Humidity 95    
Minimum Humidity 61    
Precipitation  
Precipitation T in 0.03 in 1.70 in (1986)
Month to date precipitation 0.19 0.30  
Year to date precipitation 0.86 0.92  
Sea Level Pressure  
Sea Level Pressure 30.11 in    
Wind  
Wind Speed 10 mph (North)    
Max Wind Speed 26 mph    
Max Gust Speed 33 mph    
Visibility 10 miles    
Events Snow    
T = Trace of Precipitation, MM = Missing Value Source: NWS Daily Summary

Daily Weather History Graph

Daily Weather History Graph

Search for Another Location

Airport:

Trip Planner

Search our weather history database for the weather conditions in past years. The results will help you decide how hot, cold, wet, or windy it might be!

Date:

Astronomy

Feb. 13, 2013 Rise Set
Actual Time 6:59 AM MST 5:40 PM MST
Civil Twilight 6:31 AM MST 6:07 PM MST
Nautical Twilight 6:00 AM MST 6:39 PM MST
Astronomical Twilight 5:29 AM MST 7:10 PM MST
Moon 8:31 AM MST (2/13) 9:43 PM MST (2/13)
Length of Visible Light 11h 36m
Length of Day
10h 41m
Waxing Crescent, 14% of the Moon is Illuminated
Feb 13
Waxing Crescent
Feb 17
First Quarter
Feb 25
Full
Mar 4
Last Quarter
Mar 11
New

Hourly Weather History & Observations

Time (MST) Temp. Windchill Dew Point Humidity Pressure Visibility Wind Dir Wind Speed Gust Speed Precip Events Conditions
12:53 AM 3.0 °F -4.4 °F -0.9 °F 84% 30.17 in 7.0 mi NNE 3.5 mph - N/A   Overcast
1:53 AM 6.1 °F -0.9 °F 1.9 °F 83% 30.12 in 9.0 mi NE 3.5 mph - N/A   Overcast
2:29 AM 3.2 °F -6.2 °F -0.4 °F 85% 30.05 in 10.0 mi North 4.6 mph - N/A   Overcast
2:51 AM 3.2 °F -6.2 °F -0.4 °F 85% 30.05 in 10.0 mi NE 4.6 mph - N/A   Overcast
2:53 AM 1.9 °F -7.6 °F -0.9 °F 88% 30.13 in 10.0 mi ENE 4.6 mph - N/A   Overcast
3:07 AM 3.2 °F -9.1 °F -0.4 °F 85% 30.05 in 10.0 mi NNE 6.9 mph - N/A   Overcast
3:53 AM 5.0 °F -10.8 °F -0.0 °F 80% 30.11 in 10.0 mi North 11.5 mph - N/A   Overcast
4:10 AM 5.0 °F -10.0 °F 1.4 °F 85% 30.05 in 10.0 mi North 10.4 mph - N/A   Overcast
4:53 AM 3.0 °F -6.4 °F -0.9 °F 84% 30.15 in 10.0 mi East 4.6 mph - N/A   Overcast
5:53 AM 1.9 °F -10.6 °F -0.9 °F 88% 30.19 in 10.0 mi NNE 6.9 mph - N/A   Overcast
6:53 AM 1.9 °F -9.2 °F -2.0 °F 83% 30.21 in 10.0 mi NE 5.8 mph - N/A   Overcast
7:10 AM 1.4 °F -9.9 °F -2.2 °F 85% 30.04 in 10.0 mi NE 5.8 mph - N/A   Scattered Clouds
7:53 AM 5.0 °F -9.1 °F 1.0 °F 84% 30.24 in 10.0 mi North 9.2 mph - N/A   Partly Cloudy
8:53 AM 12.9 °F 1.6 °F 3.9 °F 67% 30.19 in 10.0 mi NNW 8.1 mph - N/A   Clear
9:53 AM 16.0 °F 4.4 °F 5.0 °F 62% 30.16 in 10.0 mi NW 9.2 mph - N/A   Clear
10:53 AM 18.0 °F 4.8 °F 6.1 °F 60% 30.13 in 10.0 mi NW 12.7 mph 25.3 mph N/A   Mostly Cloudy
11:00 AM - - - N/A% - - North - - N/A   Unknown
11:13 AM 19.4 °F 2.8 °F 6.8 °F 58% 30.04 in 10.0 mi WNW 21.9 mph 28.8 mph N/A   Scattered Clouds
11:53 AM 18.0 °F 0.9 °F 8.1 °F 65% 30.12 in 10.0 mi WNW 21.9 mph 31.1 mph 0.00 in   Clear
12:32 PM 19.4 °F 4.1 °F 8.6 °F 63% 30.02 in 10.0 mi NW 18.4 mph 28.8 mph N/A   Mostly Cloudy
12:53 PM 19.0 °F 4.0 °F 9.0 °F 65% 30.10 in 10.0 mi WNW 17.3 mph 27.6 mph N/A   Mostly Cloudy
1:53 PM 21.0 °F 8.1 °F 10.0 °F 63% 30.04 in 10.0 mi NW 13.8 mph 19.6 mph 0.00 in   Overcast
2:21 PM 21.2 °F 8.3 °F 10.4 °F 63% 30.01 in 7.0 mi NNW 13.8 mph 23.0 mph 0.00 in Snow Light Snow
2:53 PM 19.0 °F 5.0 °F 10.0 °F 68% 30.09 in 7.0 mi NW 15.0 mph 25.3 mph 0.00 in Snow Light Snow
3:53 PM 19.9 °F 5.7 °F 10.0 °F 65% 30.07 in 7.0 mi NW 16.1 mph 28.8 mph 0.00 in Snow Light Snow
4:53 PM 19.9 °F 5.2 °F 10.9 °F 68% 30.09 in 9.0 mi NW 17.3 mph 27.6 mph 0.00 in   Overcast
5:53 PM 18.0 °F 3.6 °F 10.0 °F 71% 30.13 in 8.0 mi NW 15.0 mph - 0.00 in Snow Light Snow
6:38 PM 15.8 °F 8.6 °F 8.6 °F 73% 30.06 in 9.0 mi ESE 4.6 mph - 0.00 in   Scattered Clouds
6:53 PM 15.1 °F 7.7 °F 9.0 °F 77% 30.17 in 10.0 mi ESE 4.6 mph - 0.00 in   Partly Cloudy
7:53 PM 12.0 °F 5.9 °F 6.1 °F 77% 30.19 in 10.0 mi ENE 3.5 mph - N/A   Overcast
8:53 PM 12.9 °F 5.2 °F 7.0 °F 77% 30.13 in 10.0 mi Variable 4.6 mph - N/A   Overcast
9:40 PM 10.4 °F 2.2 °F 6.8 °F 85% 30.07 in 10.0 mi NE 4.6 mph - N/A   Overcast
9:53 PM 10.0 °F 1.8 °F 6.1 °F 84% 30.13 in 10.0 mi NE 4.6 mph - N/A   Overcast
10:51 PM 6.8 °F - 3.2 °F 85% 30.07 in 10.0 mi Calm Calm - N/A   Partly Cloudy
10:53 PM 8.1 °F 1.4 °F 3.0 °F 80% 30.13 in 10.0 mi ENE 3.5 mph - N/A   Partly Cloudy
11:53 PM 10.9 °F 4.7 °F 5.0 °F 77% 30.10 in 10.0 mi Variable 3.5 mph - N/A   Partly Cloudy